Location: Rumah Apan
(2.7833°N, 113.9500°E)
Time: 22:45:22
(UTC+00:00)

Tsikada Rocket - Pass Details

Date: 25 July 2021
Orbit: 958 x 1009 km, 82.9° (Epoch: 22 September)

Event Time Altitude Azimuth Distance (km) Brightness Sun altitude
Rises 11:24:31 0° 178° (S) 3,635 6.8 -11.7°
Reaches altitude 10° 11:27:02 10° 175° (S) 2,687 6.1 -12.3°
Maximum altitude 11:33:07 68° 93° (E) 1,028 3.9 -13.7°
Drops below altitude 10° 11:39:14 10° 11° (N) 2,693 6.4 -15.1°
Sets 11:41:45 0° 9° (N) 3,643 7.2 -15.7°
